TimeCDT,TemperatureF,Dew PointF,Humidity,Sea Level PressureIn,VisibilityMPH,Wind Direction,Wind SpeedMPH,Gust SpeedMPH,PrecipitationIn,Events,Conditions,WindDirDegrees,DateUTC
12:14 AM,33.8,30.2,87,29.77,10.0,WNW,9.2,-,N/A,,Overcast,300,2013-04-07 05:14:00
12:33 AM,33.8,30.2,87,29.77,10.0,NW,8.1,-,N/A,,Overcast,310,2013-04-07 05:33:00
12:53 AM,32.0,30.2,93,29.78,10.0,NW,9.2,-,N/A,,Overcast,320,2013-04-07 05:53:00
1:14 AM,33.8,28.4,81,29.78,10.0,NW,9.2,-,N/A,,Overcast,320,2013-04-07 06:14:00
1:33 AM,33.8,28.4,81,29.78,10.0,NNW,9.2,-,N/A,,Overcast,330,2013-04-07 06:33:00
1:53 AM,32.0,28.4,87,29.79,10.0,NW,8.1,-,N/A,,Overcast,320,2013-04-07 06:53:00
2:13 AM,32.0,28.4,87,29.79,10.0,NW,8.1,-,N/A,,Overcast,320,2013-04-07 07:13:00
2:33 AM,32.0,28.4,87,29.79,10.0,NNW,5.8,-,N/A,,Overcast,330,2013-04-07 07:33:00
2:54 AM,32.0,28.4,87,29.79,10.0,NNW,8.1,-,N/A,,Overcast,330,2013-04-07 07:54:00
3:13 AM,32.0,28.4,87,29.79,10.0,NNW,8.1,-,N/A,,Overcast,330,2013-04-07 08:13:00
3:33 AM,32.0,28.4,87,29.79,10.0,NNW,8.1,-,N/A,,Overcast,340,2013-04-07 08:33:00
3:54 AM,32.0,28.4,87,29.80,10.0,NNW,8.1,-,N/A,,Overcast,340,2013-04-07 08:54:00
4:13 AM,32.0,26.6,80,29.81,10.0,North,9.2,-,N/A,,Overcast,350,2013-04-07 09:13:00
4:33 AM,32.0,26.6,80,29.81,10.0,North,5.8,-,N/A,,Overcast,350,2013-04-07 09:33:00
4:54 AM,32.0,26.6,80,29.82,10.0,North,8.1,-,N/A,,Overcast,10,2013-04-07 09:54:00
5:13 AM,32.0,26.6,80,29.82,10.0,NNW,5.8,-,N/A,,Overcast,340,2013-04-07 10:13:00
5:33 AM,32.0,26.6,80,29.83,10.0,NNW,3.5,-,N/A,,Overcast,330,2013-04-07 10:33:00
5:54 AM,30.2,26.6,86,29.83,10.0,NNW,3.5,-,N/A,,Overcast,330,2013-04-07 10:54:00
6:13 AM,30.2,26.6,86,29.84,10.0,Calm,Calm,-,N/A,,Overcast,0,2013-04-07 11:13:00
6:33 AM,32.0,26.6,80,29.85,10.0,North,4.6,-,N/A,,Overcast,350,2013-04-07 11:33:00
6:54 AM,32.0,26.6,80,29.86,10.0,NNW,5.8,-,N/A,,Overcast,340,2013-04-07 11:54:00
7:13 AM,30.2,26.6,86,29.87,10.0,Calm,Calm,-,N/A,,Overcast,0,2013-04-07 12:13:00
7:33 AM,30.2,28.4,93,29.87,10.0,NW,3.5,-,N/A,,Overcast,310,2013-04-07 12:33:00
7:54 AM,30.2,26.6,86,29.87,10.0,Calm,Calm,-,N/A,,Overcast,0,2013-04-07 12:54:00
8:13 AM,32.0,26.6,80,29.87,10.0,North,4.6,-,N/A,,Overcast,360,2013-04-07 13:13:00
8:33 AM,33.8,26.6,75,29.87,10.0,North,3.5,-,N/A,,Overcast,10,2013-04-07 13:33:00
8:54 AM,32.0,26.6,80,29.87,10.0,Calm,Calm,-,N/A,,Overcast,0,2013-04-07 13:54:00
9:13 AM,33.8,26.6,75,29.87,10.0,North,3.5,-,N/A,,Overcast,360,2013-04-07 14:13:00
9:33 AM,33.8,26.6,75,29.87,10.0,Calm,Calm,-,N/A,,Overcast,0,2013-04-07 14:33:00
9:54 AM,33.8,26.6,75,29.87,10.0,Calm,Calm,-,N/A,,Overcast,0,2013-04-07 14:54:00
10:13 AM,33.8,26.6,75,29.87,10.0,Calm,Calm,-,N/A,,Overcast,0,2013-04-07 15:13:00
10:33 AM,33.8,26.6,75,29.88,10.0,Calm,Calm,-,N/A,,Overcast,0,2013-04-07 15:33:00
10:54 AM,33.8,26.6,75,29.89,10.0,Calm,Calm,-,N/A,,Overcast,0,2013-04-07 15:54:00
11:13 AM,33.8,26.6,75,29.89,10.0,Calm,Calm,-,N/A,,Overcast,0,2013-04-07 16:13:00
11:34 AM,33.8,26.6,75,29.90,10.0,Calm,Calm,-,N/A,,Overcast,0,2013-04-07 16:34:00
11:53 AM,33.8,26.6,75,29.90,10.0,South,3.5,-,N/A,,Overcast,190,2013-04-07 16:53:00
12:13 PM,33.8,26.6,75,29.89,10.0,Calm,Calm,-,N/A,,Overcast,0,2013-04-07 17:13:00
12:33 PM,33.8,26.6,75,29.88,10.0,South,3.5,-,N/A,,Overcast,180,2013-04-07 17:33:00
12:53 PM,35.6,26.6,70,29.88,10.0,South,3.5,-,N/A,,Overcast,190,2013-04-07 17:53:00
1:13 PM,35.6,26.6,70,29.87,10.0,South,6.9,-,N/A,,Overcast,190,2013-04-07 18:13:00
1:33 PM,35.6,26.6,70,29.86,10.0,South,5.8,-,N/A,,Unknown,170,2013-04-07 18:33:00
1:53 PM,35.6,26.6,70,29.86,10.0,South,8.1,-,N/A,,Overcast,170,2013-04-07 18:53:00
2:13 PM,37.4,28.4,70,29.85,10.0,South,6.9,-,N/A,,Overcast,180,2013-04-07 19:13:00
2:33 PM,37.4,26.6,65,29.84,10.0,SSE,6.9,-,N/A,,Overcast,160,2013-04-07 19:33:00
2:54 PM,37.4,28.4,70,29.83,10.0,South,8.1,-,N/A,,Mostly Cloudy,180,2013-04-07 19:54:00
3:13 PM,37.4,28.4,70,29.82,10.0,SSE,6.9,-,N/A,,Scattered Clouds,150,2013-04-07 20:13:00
3:33 PM,37.4,28.4,70,29.82,10.0,South,11.5,-,N/A,,Scattered Clouds,180,2013-04-07 20:33:00
3:53 PM,37.4,28.4,70,29.81,10.0,South,8.1,-,N/A,,Scattered Clouds,190,2013-04-07 20:53:00
4:13 PM,37.4,28.4,70,29.80,10.0,South,8.1,-,N/A,,Scattered Clouds,170,2013-04-07 21:13:00
4:34 PM,37.4,28.4,70,29.80,10.0,South,10.4,-,N/A,,Clear,180,2013-04-07 21:34:00
4:53 PM,37.4,28.4,70,29.80,10.0,South,9.2,-,N/A,,Clear,170,2013-04-07 21:53:00
5:12 PM,37.4,28.4,70,29.79,10.0,SSE,8.1,-,N/A,,Mostly Cloudy,160,2013-04-07 22:12:00
5:34 PM,37.4,28.4,70,29.79,10.0,SE,5.8,-,N/A,,Scattered Clouds,140,2013-04-07 22:34:00
5:53 PM,37.4,28.4,70,29.80,10.0,South,11.5,-,N/A,,Scattered Clouds,170,2013-04-07 22:53:00
6:13 PM,37.4,28.4,70,29.81,10.0,SSE,10.4,-,N/A,,Mostly Cloudy,160,2013-04-07 23:13:00
6:34 PM,37.4,28.4,70,29.81,10.0,South,6.9,-,N/A,,Overcast,170,2013-04-07 23:34:00
6:53 PM,37.4,28.4,70,29.81,10.0,SSE,5.8,-,N/A,,Overcast,160,2013-04-07 23:53:00
7:13 PM,37.4,30.2,75,29.81,10.0,South,4.6,-,N/A,,Overcast,170,2013-04-08 00:13:00
7:34 PM,37.4,30.2,75,29.81,10.0,Calm,Calm,-,N/A,,Overcast,0,2013-04-08 00:34:00
7:53 PM,35.6,30.2,81,29.82,10.0,Calm,Calm,-,N/A,,Overcast,0,2013-04-08 00:53:00
8:13 PM,37.4,30.2,75,29.81,10.0,Calm,Calm,-,N/A,,Overcast,0,2013-04-08 01:13:00
8:34 PM,37.4,30.2,75,29.80,10.0,Calm,Calm,-,N/A,,Light Drizzle,0,2013-04-08 01:34:00
8:53 PM,35.6,30.2,81,29.80,10.0,Calm,Calm,-,N/A,,Overcast,0,2013-04-08 01:53:00
9:13 PM,35.6,30.2,81,29.80,10.0,Calm,Calm,-,N/A,Rain,Light Rain,0,2013-04-08 02:13:00
9:34 PM,35.6,30.2,81,29.80,10.0,ENE,3.5,-,N/A,,Drizzle,60,2013-04-08 02:34:00
9:53 PM,35.6,30.2,81,29.79,7.0,ENE,4.6,-,N/A,,Drizzle,60,2013-04-08 02:53:00
10:13 PM,35.6,32.0,87,29.79,5.0,ENE,3.5,-,N/A,,Heavy Drizzle,60,2013-04-08 03:13:00
10:34 PM,33.8,32.0,93,29.79,4.0,Calm,Calm,-,0.02,Rain,Light Rain,0,2013-04-08 03:34:00
10:53 PM,33.8,33.8,100,29.80,3.0,Calm,Calm,-,0.05,Rain,Light Rain,0,2013-04-08 03:53:00
11:13 PM,33.8,33.8,100,29.79,3.0,ENE,3.5,-,0.02,Rain,Light Rain,60,2013-04-08 04:13:00
11:34 PM,33.8,33.8,100,29.78,4.0,ENE,3.5,-,0.04,Rain,Light Rain,60,2013-04-08 04:34:00
11:53 PM,33.8,33.8,100,29.78,4.0,Calm,Calm,-,0.05,,Drizzle,0,2013-04-08 04:53:00